Location: Artiguedieu
(43.5000°N, 0.5454°E)
Time: 15:00:48
(UTC+00:00)

HuskySat-1 - Pass Details

Date: 02 October 2021
Orbit: 445 x 458 km, 51.6° (Epoch: 27 October)

Event Time Altitude Azimuth Distance (km) Brightness Sun altitude
Rises 19:42:34 0° 275° (W) 2,462 ? -23.4°
Reaches altitude 10° 19:44:56 10° 289° (WNW) 1,593 ? -23.8°
Maximum altitude 19:48:00 26° 348° (NNW) 944 ? -24.3°
Enters shadow 19:48:08 26° 352° (N) 946 ? -24.3°
